Weather History for De Queen, AR

Change the Weather History Date:

Wednesday, September 7, 2011

  Actual Average Record
Temperature  
Mean Temperature 66 °F 77 °F  
Max Temperature 87 °F 90 °F 105 °F (1990)
Min Temperature 45 °F 64 °F 45 °F (2011)
Degree Days  
Heating Degree Days 0 0  
Month to date heating degree days 0 0  
Since 1 July heating degree days 0 0  
Cooling Degree Days 1 12  
Month to date cooling degree days 83 93  
Year to date cooling degree days 2272 1685  
Growing Degree Days 15 (Base 50)    
Moisture  
Dew Point 42 °F    
Average Humidity 55    
Maximum Humidity 93    
Minimum Humidity 16    
Precipitation  
Precipitation 0.00 in 0.12 in 2.00 in (1962)
Month to date precipitation 0.07 0.81  
Year to date precipitation 24.90 32.40  
Snow  
Snow 0.00 in - - ()
Month to date snowfall 0.0  
Since 1 July snowfall 0.0  
Since 1 September snowfall 0.0  
Snow Depth 0.00 in    
Sea Level Pressure  
Sea Level Pressure 30.08 in    
Wind  
Wind Speed 2 mph (NNW)    
Max Wind Speed 3 mph    
Max Gust Speed 3 mph    
Visibility 10 miles    
Events      
T = Trace of Precipitation, MM = Missing Value Source: NWS Daily Summary

Daily Weather History Graph

Daily Weather History Graph

Search for Another Location

Airport:

Trip Planner

Search our weather history database for the weather conditions in past years. The results will help you decide how hot, cold, wet, or windy it might be!

Date:

Astronomy

Sep. 07, 2011 Rise Set
Actual Time 6:55 AM CDT 7:35 PM CDT
Civil Twilight 6:29 AM CDT 8:00 PM CDT
Nautical Twilight 5:59 AM CDT 8:30 PM CDT
Astronomical Twilight 5:29 AM CDT 9:01 PM CDT
Moon 4:44 PM CDT (9/7) 2:23 AM CDT (9/7)
Length of Visible Light 13h 31m
Length of Day
12h 40m
Waxing Gibbous, 80% of the Moon is Illuminated
Sep 7
Waxing Gibbous
Sep 12
Full
Sep 20
Last Quarter
Sep 27
New
Oct 3
First Quarter

Hourly Weather History & Observations

Time (CDT) Temp. Dew Point Humidity Pressure Visibility Wind Dir Wind Speed Gust Speed Precip Events Conditions
12:53 AM 52.0 °F 45.0 °F 77% 30.04 in 10.0 mi Calm Calm - N/A   Clear
1:53 AM 51.1 °F 46.0 °F 83% 30.05 in 10.0 mi Calm Calm - N/A   Clear
2:53 AM 48.9 °F 45.0 °F 86% 30.05 in 10.0 mi Calm Calm - N/A   Clear
3:53 AM 46.9 °F 45.0 °F 93% 30.08 in 10.0 mi Calm Calm - N/A   Clear
4:53 AM 46.9 °F 45.0 °F 93% 30.09 in 10.0 mi Calm Calm - N/A   Clear
5:53 AM 46.9 °F 44.1 °F 90% 30.09 in 10.0 mi Calm Calm - N/A   Clear
6:53 AM 46.0 °F 45.0 °F 96% 30.12 in 10.0 mi Calm Calm - N/A   Clear
7:53 AM 50.0 °F 46.9 °F 89% 30.13 in 10.0 mi Calm Calm - N/A   Clear
8:53 AM 61.0 °F 51.1 °F 70% 30.14 in 10.0 mi Calm Calm - N/A   Clear
10:53 AM 75.0 °F 42.1 °F 31% 30.15 in 10.0 mi Calm Calm - N/A   Clear
11:53 AM 77.0 °F 39.9 °F 26% 30.13 in 10.0 mi Calm Calm - N/A   Clear
12:53 PM 80.1 °F 42.1 °F 26% 30.11 in 10.0 mi SE 6.9 mph - N/A   Clear
1:53 PM 84.9 °F 39.9 °F 20% 30.08 in 10.0 mi Variable 5.8 mph - N/A   Clear
2:53 PM 84.9 °F 37.0 °F 18% 30.07 in 10.0 mi Variable 6.9 mph - N/A   Clear
3:53 PM 84.0 °F 39.0 °F 20% 30.04 in 10.0 mi WNW 6.9 mph - N/A   Clear
5:53 PM 82.9 °F 37.9 °F 20% 30.04 in 10.0 mi NNW 5.8 mph - N/A   Clear
6:53 PM 81.0 °F 36.0 °F 20% 30.05 in 10.0 mi North 5.8 mph - N/A   Clear
7:53 PM 77.0 °F 37.0 °F 24% 30.05 in 10.0 mi NNW 4.6 mph - N/A   Clear
8:53 PM 75.0 °F 37.0 °F 25% 30.07 in 10.0 mi Calm Calm - N/A   Clear
9:53 PM 71.1 °F 42.1 °F 35% 30.09 in 10.0 mi Calm Calm - N/A   Clear
11:53 PM 62.1 °F 48.0 °F 60% 30.09 in 10.0 mi Calm Calm - N/A   Clear